BMCB-9 Weather Reports


time (UTC)temp
F
wind
direction
speed
knots
gust
knots
rain 1hr
in
rain 24hr
in
rain mn
in
humidity
%
barometer
mb
20260503055054 58 0 0.0 0.0 0.00 0.00 0.00 87 1011.4
20260503054054 57 0 0.0 0.0 0.00 0.00 0.00 89 1011.5
20260503053055 56 0 0.0 0.0 0.00 0.00 0.00 92 1011.6
20260503052054 55 0 0.0 0.0 0.00 0.00 0.00 93 1011.6
20260503051055 55 0 0.0 0.0 0.00 0.00 0.00 93 1011.6
20260503050055 55 0 0.0 0.0 0.00 0.00 0.00 92 1011.6
20260503045055 55 0 0.0 0.0 0.00 0.00 0.00 92 1011.6
20260503043055 55 0 0.0 0.0 0.00 0.00 0.00 92 1011.7
20260503041054 56 0 0.0 0.0 0.00 0.00 0.00 91 1011.8
20260503035055 56 0 0.0 0.0 0.00 0.01 0.00 91 1011.9
20260503034055 56 0 0.0 0.0 0.00 0.01 0.00 90 1012.0
20260503033055 56 0 0.0 0.0 0.00 0.01 0.00 90 1012.0
20260503032055 57 0 0.0 0.0 0.00 0.01 0.00 90 1012.1
20260503031055 57 0 0.0 0.0 0.00 0.01 0.00 91 1012.1
20260503025054 57 0 0.0 0.0 0.00 0.01 0.00 90 1012.1
20260503024056 57 0 0.0 0.0 0.00 0.01 0.00 90 1012.1
20260503023055 57 0 0.0 0.0 0.00 0.01 0.00 91 1012.2
20260503021055 56 0 0.0 0.0 0.00 0.01 0.00 91 1012.3
20260503020056 56 0 0.0 0.0 0.00 0.01 0.00 91 1012.3
20260503015055 56 0 0.0 0.0 0.00 0.01 0.00 91 1012.3
20260503014055 57 0 0.0 0.0 0.00 0.01 0.00 91 1012.4
20260503013056 57 0 0.0 0.0 0.00 0.01 0.00 90 1012.5
20260503012057 57 0 0.0 0.0 0.00 0.01 0.00 90 1012.7
20260503011055 57 0 0.0 0.0 0.00 0.01 0.00 89 1012.8
20260503010056 58 0 0.0 0.0 0.00 0.01 0.00 88 1012.7
20260503005056 58 0 0.0 0.0 0.00 0.01 0.00 87 1012.9
20260503004055 58 0 0.0 0.0 0.00 0.01 0.00 87 1012.9
20260503003056 58 0 0.0 0.0 0.00 0.01 0.00 87 1012.9
20260503002055 58 0 0.0 0.0 0.00 0.01 0.00 88 1012.9
20260503000058 58 0 0.0 0.0 0.00 0.01 0.00 88 1013.0
20260502235058 58 0 0.0 0.0 0.00 0.01 0.00 87 1013.2
20260502234057 58 0 0.0 0.0 0.00 0.01 0.00 88 1013.2
20260502233056 58 0 0.0 0.0 0.00 0.01 0.00 87 1013.2
20260502231056 59 0 0.0 0.0 0.00 0.01 0.00 87 1013.2
20260502225056 59 0 0.0 0.0 0.00 0.01 0.00 86 1013.3
20260502223057 60 0 0.0 0.0 0.00 0.01 0.00 85 1013.2
20260502222057 60 0 0.0 0.0 0.00 0.01 0.00 85 1013.3
20260502221057 60 0 0.0 0.0 0.00 0.01 0.00 84 1013.2
20260502215058 60 0 0.0 0.0 0.00 0.01 0.01 84 1013.3
20260502214059 60 0 0.0 0.0 0.00 0.01 0.01 84 1013.3
20260502213058 60 0 0.0 0.0 0.00 0.01 0.01 83 1013.3
20260502212058 61 0 0.0 0.0 0.00 0.01 0.01 83 1013.3
20260502211057 61 0 0.0 0.0 0.00 0.01 0.01 83 1013.3
20260502205059 61 0 0.0 0.0 0.00 0.01 0.01 82 1013.4
20260502204058 61 0 0.0 0.0 0.00 0.01 0.01 82 1013.5
20260502203100 61 0 0.0 0.0 0.00 0.01 0.01 82 1013.5
20260502202103 61 0 0.0 0.0 0.00 0.01 0.01 82 1013.5
20260502201105 61 0 0.0 0.0 0.00 0.01 0.01 82 1013.6
20260502200100 62 0 0.0 0.0 0.00 0.01 0.01 82 1013.6
20260502195057 62 0 0.0 0.0 0.00 0.01 0.01 81 1013.6
20260502194057 63 0 0.0 0.0 0.00 0.01 0.01 80 1013.6
20260502193058 63 0 0.0 0.0 0.00 0.01 0.01 80 1013.6
20260502192058 64 0 0.0 0.0 0.00 0.01 0.01 78 1013.7
20260502191101 65 0 0.0 0.0 0.00 0.01 0.01 76 1013.6
20260502190059 66 0 0.0 0.0 0.00 0.01 0.01 75 1013.6
20260502185059 67 0 0.0 0.0 0.00 0.01 0.01 73 1013.6
20260502184058 68 0 0.0 0.0 0.00 0.01 0.01 71 1013.5
20260502183100 69 0 0.0 0.0 0.00 0.01 0.01 67 1013.5
20260502182058 69 0 0.0 0.0 0.00 0.01 0.01 68 1013.4
20260502181057 70 0 0.0 0.0 0.00 0.01 0.01 66 1013.2
20260502164056 74 0 0.0 0.0 0.00 0.01 0.01 55 1013.4
20260502163059 74 0 0.0 0.0 0.00 0.01 0.01 53 1013.6
20260502162056 75 0 0.0 0.0 0.00 0.01 0.01 52 1013.8
20260502152058 76 0 0.0 0.0 0.00 0.01 0.01 51 1014.3
20260502151058 77 0 0.0 0.0 0.00 0.01 0.01 51 1014.4
20260502123055 72 0 0.0 0.0 0.00 0.01 0.01 56 1017.1
20260502122056 71 0 0.0 0.0 0.00 0.01 0.01 59 1017.3
20260502121054 71 0 0.0 0.0 0.00 0.01 0.01 59 1017.4
20260502115052 72 0 0.0 0.0 0.00 0.01 0.01 61 1017.6
20260502113055 71 0 0.0 0.0 0.00 0.01 0.01 57 1017.8
20260502112056 71 0 0.0 0.0 0.00 0.01 0.01 59 1017.9
20260502111056 72 0 0.0 0.0 0.00 0.01 0.01 58 1017.9
20260502104055 70 0 0.0 0.0 0.00 0.01 0.01 64 1018.2
20260502103055 70 0 0.0 0.0 0.00 0.01 0.01 63 1018.3
20260502101055 69 0 0.0 0.0 0.00 0.01 0.01 64 1018.5
20260502071055 57 0 0.0 0.0 0.00 0.01 0.01 82 1019.7
20260502070054 57 0 0.0 0.0 0.00 0.01 0.01 83 1019.8
20260502065055 57 0 0.0 0.0 0.00 0.01 0.01 82 1020.0
20260502064054 56 0 0.0 0.0 0.00 0.01 0.01 83 1020.0
20260502063054 56 0 0.0 0.0 0.00 0.01 0.01 85 1019.9
20260502060055 53 0 0.0 0.0 0.00 0.01 0.01 94 1020.0